sat.trackr.live / text

‹ back to catalog

STARLINK-37338

NORAD 68739 · 2026-082M

PAYLOAD ACTIVE UNKNOWN

§ Identity

Operator
Country
US
Launch date
2026-04-15
Launch site
AFWTR
Launch vehicle
Mass (kg)
RCS (m²)

Purposes: comms

External: N2YO · Heavens-Above · Gunter

§ Orbital elements

Epoch: 2026-05-25T04:00:03.998880Z

Period
92.69 min
Inclination
97.2857°
Eccentricity
0.0001615
Mean motion
15.53627911 rev/d
Perigee alt
405.0 km
Apogee alt
407.2 km
Semi-major
6,784.3 km
B*
-3.2953e-2
RAAN
8.7819°
Arg perigee
85.8803°
Mean anomaly
9.2376°
Rev number
594

§ Raw data

STARLINK-373381 68739U 26082M   26145.16671295 -.01858210  00000+0 -32953-1 0  99952 68739  97.2857   8.7819 0001615  85.8803   9.2376 15.53627911  5946

JSON: /api/v1/satellites/68739 · /tle

For live sub-satellite position, see the globe view (requires WebGL).

§ Visibility from observer

Set your observer location to see the next 7 days of passes ≥ 10°. The values pass through the URL so the page stays shareable.

No JS? Fill the form by hand. The geolocation button needs JavaScript.